Regional Weather Roundup
Issued by NWS Memphis, TN

Home | Current Version | Previous Version | Text Only | Print | Product List | Glossary On
Versions: 1 2 3 4 5 6 7 8 9 10 11 12 13 14 15 16 17 18 19 20 21 22 23 24 25 26 27 28 29 30 31 32 33 34 35 36 37 38 39 40 41 42 43 44 45 46 47 48 49 50
000
ASUS44 KMEG 252210
RWRMEG
MEMPHIS CWA HOURLY WEATHER ROUNDUP
NATIONAL WEATHER SERVICE MEMPHIS TN
400 PM CST SUN JAN 25 2015

...WEST TENNESSEE...

CITY           SKY/WX    TMP DP  RH WIND       PRES   REMARKS
MEMPHIS INTL   PTSUNNY   50  43  77 W13       29.73S
NWS MEMPHIS      N/A     47 N/A N/A MISG        N/A
JACKSON        LGT RAIN  47  42  83 W5G23     29.70R
LEXINGTON      PTSUNNY   48  43  81 SW7       29.67S
SAVANNAH       PTSUNNY   54  39  58 W9        29.70R
DYERSBURG      PTSUNNY   50  34  53 NW20G26   29.72R
UNION CITY     CLOUDY    45  45 100 CALM      29.67R
PARIS          CLOUDY    41  39  93 W6        29.67R


...EASTERN ARKANSAS...

CITY           SKY/WX    TMP DP  RH WIND       PRES   REMARKS
JONESBORO      LGT RAIN  47  39  74 W21G30    29.73R
WEST MEMPHIS   CLOUDY    51  44  77 NW9G18    29.73R
BATESVILLE     CLOUDY    46  34  61 W14G20    29.79R
NEWPORT        PTSUNNY   48  39  71 W24       29.78R
WALNUT RIDGE   CLOUDY    46  37  71 W22G30    29.73R
BLYTHEVILLE    CLOUDY    48  42  80 NW16G26   29.71R
SEARCY         PTSUNNY   50  39  66 NW12G22   29.82R
STUTTGART      CLOUDY    55  36  47 W22       29.81R
PINE BLUFF     CLOUDY    56  33  42 W21G28    29.83R
MONTICELLO     CLOUDY    60  33  36 NW15G23   29.82R


...NORTH MISSISSIPPI...

CITY           SKY/WX    TMP DP  RH WIND       PRES   REMARKS
TUPELO         MOSUNNY   58  39  49 W12G23    29.73R
OXFORD         PTSUNNY   54  39  58 SW8       29.76R
OLIVE BRANCH   PTSUNNY   45  45 100 SW6       29.73F
TUNICA         CLOUDY    50  43  76 W10       29.77R
CLARKSDALE     CLOUDY    55  41  58 W18G28    29.78R
CORINTH        CLOUDY    55  41  58 W10       29.70R
GRENADA        CLOUDY    55  43  62 W8        29.78R
GREENWOOD      MOSUNNY   59  42  53 W8        29.79R
COLUMBUS       CLOUDY    60  41  49 W14       29.73R
STARKVILLE     MOCLDY    61  39  44 W17G26    29.75R
GOLDEN TRIANGL PTSUNNY   61  39  44 NW12G21   29.73R


...SOUTHEAST MISSOURI...

CITY           SKY/WX    TMP DP  RH WIND       PRES   REMARKS
WEST PLAINS    CLOUDY    39  33  79 W17G25    29.77R WCI  30
POPLAR BLUFF   CLOUDY    47  41  80 W12       29.68R
CAPE GIRARDEAU CLOUDY    46  44  93 SW7       29.65R


...NORTHWEST ALABAMA...

CITY           SKY/WX    TMP DP  RH WIND       PRES   REMARKS
MUSCLE SHOALS  MOSUNNY   56  39  53 SW14G20   29.70R


...MIDDLE TENNESSEE...

CITY           SKY/WX    TMP DP  RH WIND       PRES   REMARKS
NASHVILLE      CLOUDY    51  42  71 SW12G20   29.65R
CLARKSVILLE    LGT RAIN  45  42  89 SW9       29.64R
COLUMBIA       CLOUDY    52  46  82 SW8       29.64S


...WESTERN KENTUCKY...

CITY           SKY/WX    TMP DP  RH WIND       PRES   REMARKS
PADUCAH        LGT RAIN  43  40  89 SW13      29.64R FOG
FORT CAMPBELL  MIX PCPN  43  41  93 W18       29.64R


...CENTRAL ARKANSAS...

CITY           SKY/WX    TMP DP  RH WIND       PRES   REMARKS
LITTLE ROCK    CLOUDY    54  33  45 W26G37    29.84R


SKY/WX REPORTED AS FAIR MEANS FEW OR NO CLOUDS BELOW
12 THOUSAND FEET.



USA.gov is the U.S. government's official web portal to all federal, state and local government web resources and services.